GFSWCAN_prec_precacc_237.txt.gz
Total_Precipitation_Accumulation
2.42 2.36 2.19 1.98 1.64 1.46 1.65 1.79 1.53 1.57 1.66 1.72 2.02 2.27 2.36 2.56 3.49 4.35 5.26 2.65 4.31 5.04 1.96 0.91 0.87 0.75 0.57 0.72 1.33 1.19 1.89 1.82 2.24 2.33 2.08 2.00 1.76 1.29 1.00 0.65 0.59 1.07 2.02 2.20 2.12 2.48 1.09 0.33 0.47 1.02 1.36 1.24 1.18 1.27
2.81 2.42 2.03 1.70 1.42 1.47 1.61 1.81 1.59 1.55 1.49 1.60 1.73 1.92 2.22 2.43 3.18 3.93 4.85 3.00 3.53 5.57 3.50 1.01 1.03 0.68 0.45 0.52 0.95 1.34 1.56 1.45 1.72 2.15 1.75 1.64 1.49 1.32 1.18 1.26 0.64 0.83 1.08 1.56 1.70 1.40 0.74 0.39 0.51 0.98 1.01 1.07 1.06 1.10
2.91 2.64 2.35 1.80 1.54 1.55 1.66 1.72 1.53 1.43 1.32 1.40 1.68 1.76 2.10 2.62 3.10 3.99 3.90 3.34 5.42 7.03 3.74 1.52 1.06 0.68 0.64 0.51 0.71 1.80 1.14 0.77 1.13 1.18 2.04 1.73 1.40 0.83 1.02 0.85 0.87 1.03 0.64 1.01 1.19 1.12 0.58 0.44 0.40 0.48 0.56 0.74 0.83 0.76
2.69 2.49 2.13 1.80 1.60 1.63 1.47 1.46 1.36 1.32 1.29 1.35 1.56 1.92 2.16 2.81 3.21 3.85 3.40 3.25 4.33 4.43 3.97 2.16 0.87 0.68 0.67 0.76 0.74 0.99 0.90 0.70 1.07 1.76 2.73 2.32 1.67 1.03 1.28 0.91 0.88 1.17 0.90 1.07 1.32 1.65 0.83 0.71 0.84 0.82 0.63 0.60 0.50 0.47
2.09 1.97 1.87 1.68 1.43 1.48 1.39 1.44 1.41 1.32 1.42 1.38 1.56 1.94 2.68 3.14 3.90 4.45 3.00 2.97 3.08 3.35 3.45 2.25 1.07 0.81 0.68 0.82 0.75 0.90 0.99 1.22 1.72 2.42 2.52 1.52 0.90 1.42 1.66 1.03 0.83 0.78 1.02 1.21 1.48 1.46 1.41 1.40 1.14 0.83 0.75 0.64 0.45 0.27
1.45 1.42 1.61 1.71 1.38 1.40 1.29 1.36 1.50 1.54 1.44 1.46 1.81 2.09 2.84 3.90 5.63 6.37 8.03 5.38 3.10 2.73 4.12 3.12 1.77 1.14 0.79 0.84 1.07 1.37 1.81 2.15 2.29 2.37 1.58 0.96 0.57 1.75 2.45 1.16 0.77 0.83 1.14 1.09 1.10 1.03 0.87 0.83 0.71 0.59 0.55 0.52 0.56 0.54
1.30 1.36 1.58 1.48 1.27 1.17 1.21 1.36 1.45 1.55 1.75 1.90 2.16 2.33 3.55 5.14 4.91 3.89 3.48 2.80 2.02 2.51 3.96 3.22 2.29 1.71 1.29 1.20 1.78 1.78 2.01 2.99 3.22 2.98 1.90 0.86 0.70 1.94 2.41 1.19 0.79 0.83 0.94 0.80 0.69 0.66 0.64 0.47 0.36 0.33 0.33 0.41 0.52 0.54
1.31 1.23 1.10 1.08 1.00 1.05 1.12 1.20 1.36 1.57 1.85 2.39 2.63 3.72 4.93 5.36 4.34 2.74 1.09 1.08 1.36 2.72 2.96 2.84 2.61 2.93 1.71 1.85 2.35 2.00 2.18 2.70 3.02 2.55 1.65 1.01 1.31 2.06 2.13 0.81 0.47 0.40 0.42 0.31 0.26 0.22 0.31 0.22 0.18 0.14 0.10 0.11 0.23 0.50
0.86 0.78 0.77 0.72 0.82 0.94 1.00 1.08 1.39 1.66 2.39 3.49 4.51 6.20 8.44 6.74 4.63 2.59 1.29 1.49 1.67 2.49 2.51 1.42 1.72 3.05 2.37 1.92 2.38 2.47 2.26 2.79 1.91 1.78 1.29 1.49 1.58 1.72 1.11 0.46 0.35 0.23 0.25 0.21 0.11 0.09 0.08 0.07 0.14 0.27 0.27 0.16 0.20 0.50
0.79 0.68 0.70 0.73 0.85 0.95 1.08 1.37 1.66 2.35 3.19 3.82 5.30 6.13 7.84 4.61 2.49 2.91 4.94 4.84 3.96 2.60 1.94 1.35 1.11 1.85 2.36 2.39 2.23 2.73 2.27 1.87 1.65 1.07 1.01 1.46 0.95 0.47 0.32 0.24 0.19 0.15 0.16 0.20 0.24 0.17 0.13 0.13 0.15 0.21 0.36 0.35 0.47 0.52
1.08 1.04 1.08 1.18 1.34 1.54 1.78 1.79 2.05 2.44 2.78 3.56 4.08 4.88 4.46 3.30 3.36 4.03 4.27 3.21 2.19 1.46 0.78 0.85 1.10 1.73 1.85 2.15 2.21 1.91 2.42 1.93 1.52 1.16 1.13 1.22 0.90 0.82 0.31 0.16 0.12 0.12 0.17 0.26 0.28 0.51 0.35 0.30 0.24 0.36 0.43 0.50 0.56 0.57
1.04 1.25 1.40 1.38 1.45 1.64 1.66 1.65 1.48 1.70 1.98 1.78 2.29 3.10 3.86 3.69 3.01 2.68 2.16 1.39 0.85 0.67 0.50 0.55 0.77 1.00 1.71 1.90 1.99 1.44 1.64 1.71 2.15 1.71 1.75 1.20 1.52 0.68 0.19 0.27 0.26 0.20 0.22 0.25 0.31 0.51 0.40 0.45 0.40 0.43 0.40 0.38 0.53 0.69
0.88 0.97 1.12 1.31 1.29 1.28 1.34 1.35 1.45 1.50 1.64 1.87 1.70 2.16 2.34 2.13 1.87 1.56 1.22 0.88 0.75 0.41 0.40 0.47 0.80 1.04 1.30 1.70 1.96 1.59 1.83 1.73 1.58 1.85 1.22 1.10 0.90 0.67 0.52 0.67 0.65 0.59 0.61 0.72 0.69 0.60 0.58 0.48 0.43 0.42 0.49 0.75 0.88 1.04
0.72 0.83 0.85 0.97 1.18 1.38 1.44 1.53 1.88 2.05 2.13 1.89 1.48 1.42 1.33 1.25 0.95 0.94 1.04 0.99 0.73 0.51 0.46 0.56 0.99 1.31 1.37 1.71 2.00 1.87 1.81 1.36 1.48 1.19 1.18 1.09 0.79 0.87 0.76 0.67 0.59 0.59 0.57 0.58 0.68 0.74 0.82 0.82 0.95 1.06 1.09 1.36 1.35 1.28
0.60 0.53 0.73 1.13 1.25 1.25 1.25 1.40 1.79 1.63 1.70 1.39 0.91 0.87 0.90 1.06 0.85 0.85 0.82 0.67 0.70 0.80 0.87 1.11 1.48 1.50 1.32 1.64 1.24 1.19 1.08 0.92 0.77 1.56 1.52 1.19 0.91 0.87 0.75 0.70 0.67 0.69 0.70 0.73 0.84 0.88 1.10 1.19 1.07 1.20 1.25 1.25 1.24 1.20
0.40 0.63 0.81 0.88 0.75 0.84 1.06 1.71 1.91 1.17 1.08 0.84 0.92 1.04 0.92 1.02 1.04 0.87 0.74 0.73 0.89 1.23 1.25 1.41 1.47 1.48 1.39 1.09 0.82 0.67 0.66 0.86 1.51 1.14 0.98 1.02 0.89 0.91 0.94 0.93 0.93 0.90 0.81 0.83 0.88 0.86 0.85 0.91 0.99 1.15 1.01 0.93 1.17 1.26
0.42 0.58 0.78 0.69 0.78 0.89 1.28 1.70 1.62 1.35 0.90 0.81 1.26 1.37 1.20 1.22 1.52 1.25 1.01 0.95 0.93 0.96 0.94 1.06 1.09 0.95 0.99 0.79 0.73 0.71 1.04 1.24 1.08 0.96 0.94 0.93 0.95 1.02 1.09 1.04 1.01 0.80 0.70 0.69 0.69 0.69 0.69 0.75 0.68 0.59 0.66 0.91 0.89 0.96
0.56 0.50 0.62 0.64 0.73 1.06 1.21 1.07 1.25 0.81 0.77 1.01 1.21 1.42 0.88 1.01 1.02 1.00 0.94 0.74 0.67 0.67 0.84 1.09 1.02 0.79 0.94 1.03 1.09 1.26 1.27 1.13 1.12 1.02 0.99 1.01 0.96 0.90 0.84 0.78 0.83 0.75 0.65 0.58 0.49 0.46 0.44 0.41 0.32 0.38 0.40 0.47 0.49 0.60
0.75 0.64 0.86 0.98 0.76 0.88 0.90 0.65 0.45 0.68 1.32 0.95 0.91 0.73 0.56 0.70 0.69 0.64 0.54 0.35 0.26 0.49 0.94 1.03 0.89 1.00 1.09 1.15 1.23 1.16 1.03 0.93 0.96 0.88 0.79 0.79 0.78 0.73 0.69 0.63 0.68 0.76 0.61 0.49 0.34 0.26 0.24 0.19 0.19 0.17 0.19 0.19 0.26 0.33
1.08 0.98 0.99 0.85 0.66 0.71 0.37 0.30 0.25 0.42 0.64 0.59 0.50 0.29 0.25 0.48 0.43 0.27 0.35 0.45 0.31 0.46 0.89 1.11 1.30 1.32 1.27 1.21 0.95 0.91 0.81 0.71 0.58 0.49 0.57 0.62 0.63 0.48 0.54 0.48 0.46 0.48 0.47 0.39 0.27 0.20 0.16 0.16 0.17 0.16 0.16 0.16 0.21 0.26
1.12 1.14 0.97 0.62 0.63 0.70 0.51 0.22 0.22 0.16 0.43 0.35 0.28 0.18 0.24 0.27 0.31 0.31 0.23 0.36 0.89 0.83 0.89 0.99 1.05 1.09 0.77 0.76 0.61 0.48 0.53 0.47 0.47 0.34 0.39 0.50 0.52 0.34 0.35 0.39 0.35 0.31 0.29 0.34 0.31 0.30 0.23 0.25 0.21 0.16 0.16 0.16 0.19 0.18
0.86 0.78 0.84 0.65 0.73 0.57 0.41 0.13 0.15 0.16 0.23 0.34 0.30 0.34 0.45 0.41 0.32 0.28 0.32 0.51 0.79 0.93 0.86 0.66 0.56 0.49 0.35 0.36 0.36 0.30 0.32 0.25 0.30 0.40 0.49 0.40 0.44 0.42 0.44 0.49 0.40 0.38 0.35 0.34 0.30 0.29 0.27 0.21 0.14 0.10 0.11 0.16 0.15 0.15
0.57 0.56 0.73 0.58 0.75 0.56 0.31 0.17 0.18 0.10 0.21 0.27 0.25 0.35 0.33 0.34 0.46 0.38 0.66 0.66 0.93 0.93 0.67 0.42 0.34 0.25 0.28 0.35 0.27 0.24 0.16 0.14 0.17 0.24 0.29 0.32 0.32 0.35 0.33 0.35 0.33 0.33 0.30 0.26 0.19 0.18 0.18 0.12 0.06 0.08 0.11 0.15 0.19 0.23
0.76 0.94 0.81 0.51 0.41 0.47 0.34 0.31 0.23 0.20 0.18 0.22 0.33 0.37 0.32 0.35 0.60 0.81 0.81 0.68 0.90 0.58 0.37 0.44 0.40 0.35 0.33 0.34 0.37 0.36 0.39 0.29 0.26 0.30 0.33 0.27 0.30 0.34 0.25 0.21 0.16 0.14 0.12 0.10 0.06 0.07 0.09 0.13 0.13 0.19 0.18 0.19 0.20 0.19
1.16 1.17 1.00 0.71 0.30 0.28 0.23 0.30 0.31 0.32 0.26 0.15 0.25 0.33 0.37 0.43 0.73 0.71 0.58 0.99 0.78 0.55 0.50 0.47 0.50 0.55 0.58 0.57 0.54 0.47 0.38 0.26 0.19 0.21 0.26 0.17 0.22 0.24 0.25 0.25 0.21 0.17 0.14 0.18 0.18 0.14 0.16 0.17 0.23 0.23 0.22 0.23 0.23 0.24
0.96 0.52 0.46 0.50 0.38 0.33 0.32 0.30 0.29 0.26 0.28 0.41 0.44 0.32 0.34 0.75 0.80 0.92 1.00 1.10 0.85 0.72 0.67 0.68 0.62 0.48 0.47 0.48 0.51 0.47 0.33 0.20 0.17 0.19 0.17 0.08 0.14 0.23 0.27 0.30 0.36 0.36 0.25 0.20 0.22 0.28 0.30 0.28 0.29 0.32 0.36 0.31 0.28 0.27
0.71 0.60 0.36 0.33 0.44 0.55 0.67 0.61 0.57 0.54 0.56 0.61 0.58 0.53 0.72 0.96 0.95 1.11 1.09 0.81 0.77 0.80 0.72 0.58 0.46 0.51 0.50 0.40 0.42 0.37 0.21 0.19 0.30 0.29 0.20 0.17 0.17 0.18 0.27 0.34 0.35 0.33 0.22 0.28 0.34 0.37 0.39 0.41 0.39 0.38 0.41 0.41 0.33 0.29
0.56 0.31 0.43 0.41 0.55 0.68 0.71 0.64 0.73 0.89 0.85 0.60 0.55 0.67 0.76 0.78 1.02 1.01 0.87 0.86 0.79 0.69 0.76 0.77 0.61 0.47 0.61 0.69 0.63 0.56 0.45 0.36 0.40 0.38 0.43 0.59 0.40 0.24 0.26 0.30 0.28 0.25 0.23 0.31 0.39 0.47 0.53 0.53 0.47 0.46 0.48 0.46 0.44 0.45
0.36 0.21 0.23 0.28 0.28 0.55 0.62 0.61 0.76 0.67 0.55 0.58 0.76 0.85 0.62 0.62 0.99 0.90 0.85 0.69 0.60 0.57 0.74 0.83 0.92 0.74 0.63 0.92 1.00 0.88 0.87 0.91 0.76 0.73 0.57 0.59 0.56 0.48 0.33 0.32 0.36 0.36 0.34 0.36 0.47 0.49 0.53 0.56 0.51 0.52 0.52 0.55 0.54 0.57
0.14 0.10 0.20 0.11 0.16 0.57 0.72 0.50 0.53 0.47 0.37 0.50 0.53 0.50 0.46 0.88 1.24 0.82 0.61 0.50 0.48 0.57 0.67 0.69 0.74 0.68 0.78 0.80 1.08 1.08 1.09 1.25 1.32 1.00 0.75 0.58 0.50 0.40 0.34 0.32 0.30 0.31 0.31 0.31 0.34 0.48 0.58 0.62 0.71 0.75 0.69 0.76 0.83 0.86
0.17 0.24 0.22 0.14 0.31 0.46 0.37 0.26 0.34 0.41 0.55 0.72 0.58 0.48 0.56 0.81 0.80 0.61 0.50 0.57 0.46 0.35 0.35 0.43 0.49 0.55 0.68 0.81 0.90 0.89 1.12 1.30 1.50 1.37 1.26 0.99 0.75 0.59 0.46 0.38 0.35 0.37 0.44 0.44 0.40 0.40 0.47 0.54 0.58 0.60 0.61 0.62 0.61 0.58
0.31 0.36 0.28 0.27 0.42 0.35 0.31 0.33 0.48 0.63 0.74 0.81 0.93 0.87 0.82 0.52 0.44 0.49 0.51 0.42 0.36 0.31 0.36 0.41 0.53 0.70 0.72 0.90 0.95 0.98 1.02 1.12 1.19 1.25 1.45 1.20 0.94 0.76 0.56 0.48 0.45 0.46 0.51 0.50 0.46 0.47 0.48 0.46 0.54 0.56 0.58 0.61 0.62 0.66
0.30 0.21 0.22 0.25 0.27 0.29 0.33 0.36 0.51 0.53 0.61 0.67 0.80 0.75 0.66 0.43 0.51 0.68 0.53 0.41 0.63 0.54 0.45 0.45 0.52 0.66 0.69 0.61 0.60 0.64 0.63 0.71 0.80 0.86 0.97 0.98 0.86 0.67 0.54 0.49 0.43 0.39 0.42 0.47 0.49 0.48 0.46 0.44 0.48 0.52 0.54 0.53 0.51 0.50

GFSWCAN_prec_precacc_243.txt.gz
Total_Precipitation_Accumulation
2.50 2.39 2.21 2.00 1.66 1.48 1.68 1.81 1.54 1.57 1.67 1.73 2.03 2.28 2.38 2.57 3.50 4.35 5.27 2.67 4.35 5.07 1.96 0.91 0.87 0.75 0.57 0.72 1.33 1.20 1.89 1.82 2.25 2.35 2.10 2.01 1.78 1.29 1.00 0.65 0.59 1.08 2.04 2.23 2.16 2.54 1.13 0.33 0.48 1.02 1.37 1.24 1.18 1.27
2.92 2.46 2.05 1.73 1.44 1.48 1.63 1.84 1.60 1.55 1.50 1.61 1.74 1.93 2.24 2.44 3.19 3.93 4.85 3.02 3.57 5.61 3.51 1.01 1.03 0.68 0.45 0.52 0.95 1.34 1.56 1.45 1.73 2.17 1.78 1.69 1.51 1.33 1.19 1.26 0.64 0.84 1.09 1.57 1.71 1.41 0.74 0.40 0.52 0.98 1.01 1.07 1.06 1.10
3.03 2.69 2.38 1.82 1.56 1.57 1.67 1.73 1.55 1.45 1.33 1.41 1.69 1.77 2.10 2.63 3.12 3.99 3.91 3.35 5.44 7.05 3.74 1.52 1.06 0.68 0.64 0.51 0.71 1.81 1.15 0.78 1.14 1.18 2.07 1.75 1.41 0.84 1.02 0.85 0.87 1.03 0.64 1.02 1.20 1.12 0.58 0.44 0.40 0.48 0.56 0.74 0.83 0.76
2.81 2.55 2.16 1.82 1.61 1.65 1.49 1.48 1.39 1.34 1.30 1.36 1.57 1.92 2.17 2.82 3.22 3.86 3.41 3.25 4.34 4.43 3.97 2.16 0.87 0.68 0.67 0.76 0.74 0.99 0.90 0.70 1.08 1.78 2.78 2.36 1.69 1.03 1.28 0.91 0.88 1.17 0.90 1.07 1.32 1.65 0.83 0.71 0.84 0.83 0.64 0.61 0.50 0.47
2.18 2.06 1.89 1.70 1.44 1.50 1.40 1.46 1.43 1.35 1.44 1.39 1.58 1.95 2.69 3.15 3.90 4.46 3.00 2.98 3.08 3.36 3.46 2.26 1.07 0.81 0.68 0.82 0.75 0.90 1.00 1.22 1.73 2.46 2.57 1.54 0.91 1.44 1.68 1.04 0.83 0.78 1.03 1.24 1.49 1.46 1.43 1.41 1.14 0.84 0.77 0.65 0.45 0.28
1.52 1.49 1.64 1.72 1.39 1.41 1.30 1.37 1.52 1.58 1.47 1.49 1.83 2.10 2.85 3.91 5.64 6.41 8.07 5.39 3.11 2.75 4.14 3.12 1.77 1.14 0.79 0.84 1.07 1.37 1.81 2.16 2.32 2.41 1.60 0.97 0.57 1.77 2.49 1.16 0.77 0.83 1.14 1.09 1.10 1.03 0.87 0.84 0.71 0.59 0.55 0.52 0.56 0.54
1.36 1.40 1.61 1.50 1.29 1.18 1.22 1.38 1.48 1.59 1.78 1.93 2.19 2.36 3.58 5.17 4.95 3.93 3.49 2.81 2.03 2.54 3.98 3.23 2.29 1.71 1.29 1.20 1.78 1.78 2.01 3.01 3.25 3.02 1.92 0.86 0.71 1.98 2.46 1.19 0.79 0.83 0.94 0.80 0.69 0.69 0.67 0.49 0.38 0.33 0.33 0.41 0.52 0.54
1.36 1.26 1.13 1.10 1.02 1.06 1.15 1.23 1.39 1.61 1.88 2.42 2.66 3.77 4.98 5.42 4.40 2.78 1.09 1.08 1.36 2.73 2.97 2.85 2.61 2.93 1.71 1.85 2.36 2.00 2.20 2.72 3.04 2.57 1.66 1.01 1.32 2.08 2.15 0.81 0.47 0.40 0.42 0.32 0.26 0.24 0.32 0.22 0.18 0.14 0.10 0.11 0.23 0.50
0.91 0.81 0.78 0.74 0.84 0.97 1.02 1.10 1.42 1.70 2.41 3.51 4.55 6.24 8.50 6.80 4.69 2.60 1.30 1.50 1.69 2.51 2.54 1.43 1.72 3.06 2.37 1.93 2.40 2.48 2.29 2.81 1.92 1.79 1.29 1.50 1.60 1.75 1.12 0.46 0.35 0.24 0.26 0.22 0.11 0.09 0.08 0.07 0.14 0.27 0.27 0.16 0.20 0.50
0.84 0.71 0.71 0.74 0.87 0.98 1.11 1.40 1.70 2.40 3.23 3.87 5.35 6.18 7.89 4.63 2.50 2.92 4.96 4.89 4.02 2.65 1.97 1.36 1.11 1.86 2.36 2.41 2.27 2.78 2.33 1.89 1.69 1.09 1.03 1.50 0.96 0.47 0.32 0.24 0.19 0.16 0.18 0.21 0.24 0.17 0.13 0.13 0.15 0.21 0.36 0.35 0.47 0.53
1.13 1.08 1.09 1.19 1.36 1.56 1.80 1.82 2.10 2.51 2.84 3.58 4.11 4.94 4.49 3.31 3.37 4.05 4.30 3.24 2.21 1.49 0.79 0.85 1.10 1.73 1.85 2.17 2.24 1.97 2.50 1.96 1.56 1.17 1.17 1.25 0.90 0.82 0.31 0.17 0.12 0.12 0.17 0.26 0.28 0.51 0.35 0.30 0.24 0.36 0.43 0.50 0.56 0.58
1.10 1.28 1.42 1.40 1.47 1.67 1.70 1.68 1.53 1.75 2.01 1.79 2.31 3.12 3.88 3.71 3.04 2.72 2.21 1.41 0.86 0.67 0.50 0.55 0.77 1.00 1.71 1.90 1.99 1.45 1.66 1.72 2.16 1.75 1.81 1.22 1.53 0.68 0.20 0.31 0.31 0.21 0.22 0.25 0.31 0.51 0.40 0.45 0.40 0.43 0.40 0.38 0.53 0.71
0.91 0.98 1.14 1.34 1.33 1.32 1.37 1.38 1.47 1.51 1.65 1.88 1.70 2.16 2.35 2.15 1.91 1.59 1.23 0.89 0.75 0.41 0.41 0.47 0.81 1.04 1.31 1.71 1.97 1.60 1.86 1.74 1.60 1.89 1.24 1.11 0.93 0.68 0.53 0.68 0.65 0.59 0.61 0.72 0.69 0.60 0.58 0.48 0.43 0.42 0.49 0.75 0.90 1.09
0.73 0.84 0.87 1.01 1.22 1.41 1.46 1.56 1.90 2.06 2.13 1.90 1.48 1.43 1.34 1.26 0.95 0.94 1.04 1.00 0.74 0.53 0.47 0.57 1.01 1.33 1.38 1.72 2.02 1.89 1.83 1.39 1.52 1.21 1.20 1.19 0.83 0.90 0.82 0.73 0.61 0.59 0.57 0.58 0.68 0.74 0.82 0.82 0.95 1.06 1.09 1.36 1.38 1.33
0.62 0.56 0.78 1.18 1.28 1.27 1.28 1.43 1.82 1.66 1.73 1.40 0.91 0.87 0.90 1.06 0.85 0.85 0.82 0.69 0.72 0.85 0.93 1.16 1.56 1.54 1.37 1.71 1.26 1.22 1.12 0.95 0.78 1.60 1.62 1.27 0.95 0.91 0.76 0.70 0.67 0.69 0.70 0.73 0.84 0.88 1.10 1.19 1.07 1.20 1.25 1.25 1.27 1.26
0.46 0.74 0.88 0.93 0.78 0.87 1.11 1.84 2.10 1.27 1.13 0.89 0.93 1.04 0.92 1.02 1.04 0.87 0.74 0.74 0.91 1.27 1.44 1.54 1.61 1.61 1.51 1.15 0.85 0.69 0.68 0.87 1.57 1.25 1.03 1.04 0.89 0.91 0.94 0.93 0.93 0.90 0.81 0.83 0.88 0.86 0.85 0.91 0.99 1.15 1.01 0.93 1.19 1.33
0.51 0.70 0.84 0.74 0.83 0.96 1.43 1.99 1.78 1.43 0.94 0.83 1.28 1.37 1.20 1.23 1.53 1.26 1.01 0.95 0.95 0.98 1.01 1.13 1.12 0.96 1.00 0.82 0.74 0.73 1.07 1.27 1.14 1.00 0.94 0.93 0.95 1.02 1.09 1.04 1.01 0.80 0.70 0.70 0.69 0.69 0.69 0.75 0.68 0.59 0.66 0.91 0.90 1.01
0.59 0.52 0.67 0.73 0.87 1.30 1.56 1.25 1.31 0.84 0.80 1.02 1.22 1.42 0.88 1.01 1.03 1.00 0.95 0.74 0.68 0.68 0.85 1.10 1.03 0.80 0.95 1.04 1.12 1.35 1.36 1.18 1.15 1.04 0.99 1.01 0.96 0.90 0.84 0.78 0.83 0.76 0.65 0.58 0.49 0.46 0.44 0.41 0.32 0.38 0.40 0.47 0.49 0.60
0.77 0.70 0.98 1.12 0.91 1.09 1.13 0.79 0.50 0.75 1.33 0.96 0.92 0.73 0.56 0.70 0.69 0.64 0.54 0.35 0.26 0.49 0.94 1.03 0.89 1.00 1.09 1.15 1.23 1.17 1.06 0.97 0.99 0.88 0.79 0.79 0.78 0.73 0.69 0.63 0.68 0.76 0.61 0.50 0.34 0.26 0.24 0.19 0.19 0.17 0.19 0.19 0.26 0.33
1.14 1.10 1.18 1.02 0.76 0.80 0.41 0.37 0.26 0.47 0.67 0.60 0.51 0.29 0.26 0.48 0.44 0.27 0.35 0.45 0.31 0.46 0.89 1.11 1.30 1.32 1.27 1.21 0.95 0.92 0.81 0.71 0.58 0.49 0.57 0.62 0.63 0.48 0.54 0.48 0.46 0.48 0.47 0.39 0.27 0.20 0.16 0.16 0.17 0.16 0.16 0.16 0.21 0.27
1.43 1.51 1.30 0.81 0.75 0.77 0.54 0.24 0.22 0.17 0.45 0.36 0.28 0.18 0.24 0.27 0.31 0.31 0.23 0.36 0.90 0.83 0.89 0.99 1.05 1.09 0.77 0.76 0.62 0.48 0.53 0.47 0.47 0.34 0.39 0.50 0.52 0.34 0.35 0.39 0.35 0.31 0.29 0.35 0.31 0.31 0.25 0.26 0.22 0.16 0.16 0.16 0.19 0.18
1.25 1.08 1.15 0.79 0.84 0.61 0.42 0.13 0.15 0.16 0.23 0.34 0.30 0.34 0.45 0.41 0.32 0.29 0.32 0.51 0.80 0.93 0.86 0.66 0.56 0.49 0.35 0.36 0.36 0.30 0.32 0.25 0.30 0.40 0.49 0.40 0.44 0.42 0.44 0.49 0.40 0.38 0.35 0.35 0.31 0.30 0.28 0.22 0.14 0.10 0.11 0.16 0.15 0.16
0.66 0.64 0.79 0.63 0.79 0.59 0.36 0.17 0.18 0.10 0.21 0.27 0.25 0.35 0.33 0.34 0.47 0.38 0.66 0.67 0.93 0.93 0.67 0.42 0.34 0.25 0.28 0.35 0.27 0.24 0.16 0.14 0.17 0.24 0.29 0.32 0.32 0.35 0.33 0.35 0.33 0.33 0.30 0.26 0.19 0.19 0.19 0.13 0.07 0.09 0.13 0.16 0.19 0.24
0.77 0.95 0.83 0.52 0.42 0.49 0.34 0.31 0.23 0.21 0.18 0.22 0.33 0.38 0.32 0.35 0.60 0.82 0.82 0.68 0.90 0.58 0.37 0.44 0.40 0.35 0.33 0.34 0.37 0.36 0.39 0.29 0.26 0.30 0.33 0.27 0.30 0.34 0.25 0.21 0.16 0.14 0.13 0.10 0.07 0.08 0.10 0.14 0.14 0.19 0.18 0.19 0.22 0.21
1.18 1.18 1.00 0.72 0.31 0.29 0.23 0.30 0.32 0.32 0.26 0.15 0.25 0.34 0.37 0.43 0.73 0.72 0.59 1.00 0.81 0.56 0.50 0.47 0.50 0.55 0.58 0.57 0.54 0.47 0.38 0.26 0.19 0.21 0.26 0.18 0.22 0.24 0.25 0.26 0.21 0.18 0.14 0.18 0.18 0.15 0.16 0.18 0.23 0.25 0.25 0.26 0.25 0.26
0.97 0.53 0.46 0.51 0.38 0.33 0.32 0.30 0.30 0.26 0.28 0.41 0.44 0.32 0.34 0.76 0.81 0.93 1.02 1.13 0.89 0.73 0.67 0.68 0.62 0.48 0.47 0.48 0.51 0.47 0.33 0.20 0.17 0.19 0.17 0.09 0.14 0.24 0.28 0.31 0.37 0.36 0.25 0.21 0.23 0.29 0.31 0.29 0.32 0.35 0.41 0.35 0.31 0.29
0.71 0.60 0.36 0.33 0.44 0.56 0.68 0.62 0.57 0.54 0.56 0.61 0.59 0.54 0.74 0.98 0.97 1.16 1.10 0.82 0.78 0.81 0.72 0.58 0.46 0.51 0.50 0.40 0.42 0.37 0.21 0.19 0.31 0.30 0.20 0.18 0.17 0.19 0.28 0.35 0.36 0.33 0.22 0.28 0.35 0.38 0.42 0.46 0.43 0.44 0.47 0.47 0.36 0.30
0.56 0.32 0.43 0.42 0.56 0.69 0.72 0.65 0.75 0.90 0.86 0.61 0.56 0.70 0.78 0.80 1.08 1.06 0.88 0.86 0.80 0.69 0.77 0.77 0.61 0.47 0.61 0.70 0.63 0.56 0.45 0.37 0.41 0.39 0.43 0.59 0.41 0.24 0.26 0.31 0.28 0.25 0.24 0.32 0.40 0.49 0.58 0.60 0.55 0.53 0.55 0.52 0.48 0.46
0.37 0.21 0.23 0.29 0.29 0.57 0.63 0.62 0.77 0.69 0.56 0.60 0.78 0.87 0.65 0.63 0.99 0.90 0.85 0.69 0.60 0.57 0.74 0.84 0.93 0.74 0.63 0.92 1.00 0.89 0.87 0.92 0.78 0.75 0.58 0.59 0.56 0.48 0.34 0.33 0.38 0.38 0.35 0.37 0.48 0.51 0.58 0.62 0.58 0.59 0.60 0.62 0.56 0.58
0.16 0.11 0.22 0.11 0.16 0.57 0.73 0.51 0.56 0.52 0.39 0.51 0.55 0.51 0.46 0.90 1.24 0.82 0.61 0.51 0.48 0.57 0.68 0.69 0.74 0.69 0.79 0.81 1.09 1.08 1.10 1.26 1.33 1.05 0.81 0.61 0.51 0.40 0.34 0.33 0.31 0.33 0.33 0.33 0.36 0.52 0.65 0.69 0.79 0.85 0.79 0.83 0.85 0.87
0.19 0.25 0.23 0.16 0.32 0.47 0.40 0.31 0.36 0.42 0.55 0.72 0.59 0.48 0.57 0.84 0.80 0.61 0.50 0.57 0.46 0.35 0.35 0.44 0.49 0.55 0.68 0.82 0.91 0.91 1.13 1.31 1.51 1.38 1.28 1.04 0.80 0.63 0.50 0.41 0.37 0.40 0.47 0.49 0.45 0.45 0.52 0.60 0.63 0.66 0.64 0.64 0.62 0.59
0.32 0.38 0.31 0.28 0.44 0.41 0.33 0.34 0.50 0.65 0.77 0.84 0.96 0.88 0.84 0.53 0.47 0.52 0.52 0.43 0.37 0.32 0.37 0.41 0.53 0.70 0.72 0.91 0.96 0.99 1.04 1.13 1.20 1.27 1.49 1.29 1.04 0.85 0.65 0.56 0.51 0.55 0.61 0.59 0.53 0.52 0.53 0.51 0.60 0.60 0.60 0.62 0.63 0.67
0.32 0.22 0.22 0.26 0.27 0.29 0.34 0.37 0.52 0.54 0.63 0.71 0.87 0.82 0.73 0.46 0.57 0.72 0.53 0.41 0.63 0.55 0.46 0.46 0.52 0.67 0.70 0.63 0.61 0.64 0.63 0.72 0.81 0.88 1.03 1.10 1.06 0.96 0.83 0.71 0.61 0.54 0.54 0.58 0.58 0.57 0.55 0.52 0.54 0.54 0.55 0.54 0.53 0.52

GFSWCAN_prec_precacc_246.txt.gz
Total_Precipitation_Accumulation
2.60 2.58 2.41 2.16 1.71 1.49 1.69 1.83 1.55 1.58 1.67 1.74 2.04 2.29 2.39 2.58 3.50 4.35 5.27 2.67 4.35 5.07 1.96 0.91 0.87 0.75 0.57 0.72 1.33 1.20 1.89 1.82 2.25 2.35 2.10 2.01 1.78 1.29 1.00 0.65 0.59 1.08 2.04 2.23 2.16 2.54 1.13 0.33 0.48 1.02 1.37 1.24 1.18 1.27
2.98 2.62 2.24 1.91 1.52 1.50 1.64 1.86 1.62 1.56 1.51 1.62 1.75 1.94 2.26 2.46 3.20 3.93 4.85 3.02 3.57 5.61 3.51 1.01 1.03 0.68 0.45 0.52 0.95 1.34 1.56 1.45 1.73 2.17 1.78 1.69 1.51 1.33 1.19 1.26 0.64 0.84 1.09 1.57 1.71 1.41 0.74 0.40 0.52 0.98 1.01 1.07 1.06 1.10
3.08 2.82 2.56 2.00 1.65 1.59 1.69 1.74 1.57 1.46 1.34 1.41 1.69 1.77 2.12 2.65 3.13 3.99 3.91 3.35 5.44 7.06 3.74 1.52 1.06 0.68 0.64 0.51 0.71 1.81 1.15 0.78 1.14 1.18 2.07 1.75 1.41 0.84 1.02 0.85 0.87 1.03 0.64 1.02 1.20 1.12 0.58 0.44 0.40 0.48 0.56 0.74 0.83 0.77
2.86 2.66 2.32 2.00 1.71 1.67 1.51 1.50 1.40 1.36 1.31 1.37 1.58 1.93 2.19 2.84 3.24 3.86 3.41 3.25 4.34 4.43 3.97 2.16 0.87 0.68 0.67 0.76 0.74 0.99 0.90 0.70 1.08 1.78 2.78 2.36 1.70 1.03 1.28 0.91 0.88 1.17 0.90 1.07 1.32 1.65 0.83 0.71 0.84 0.83 0.64 0.62 0.52 0.48
2.21 2.17 2.05 1.89 1.53 1.52 1.42 1.48 1.45 1.37 1.46 1.40 1.58 1.96 2.71 3.17 3.93 4.46 3.00 2.98 3.08 3.36 3.46 2.26 1.07 0.81 0.68 0.82 0.75 0.90 1.00 1.22 1.73 2.46 2.57 1.55 0.91 1.44 1.68 1.04 0.83 0.78 1.03 1.24 1.49 1.46 1.43 1.41 1.14 0.84 0.77 0.65 0.46 0.28
1.58 1.59 1.83 1.90 1.47 1.43 1.32 1.39 1.55 1.59 1.49 1.51 1.85 2.12 2.86 3.93 5.66 6.41 8.07 5.39 3.11 2.75 4.14 3.12 1.77 1.14 0.79 0.84 1.07 1.37 1.81 2.16 2.32 2.41 1.60 0.97 0.57 1.77 2.49 1.16 0.77 0.83 1.14 1.09 1.10 1.03 0.87 0.84 0.71 0.59 0.55 0.52 0.56 0.54
1.43 1.49 1.83 1.68 1.36 1.21 1.24 1.40 1.49 1.61 1.80 1.95 2.21 2.38 3.59 5.18 4.96 3.93 3.50 2.81 2.03 2.54 3.98 3.23 2.29 1.71 1.29 1.20 1.78 1.78 2.01 3.01 3.25 3.03 1.93 0.86 0.71 1.98 2.47 1.19 0.79 0.83 0.94 0.80 0.69 0.69 0.67 0.49 0.38 0.33 0.33 0.41 0.52 0.54
1.43 1.35 1.31 1.28 1.07 1.08 1.16 1.25 1.41 1.63 1.90 2.44 2.68 3.79 5.00 5.44 4.41 2.78 1.09 1.08 1.36 2.73 2.97 2.85 2.61 2.93 1.71 1.85 2.36 2.00 2.20 2.72 3.04 2.57 1.66 1.01 1.32 2.08 2.15 0.81 0.47 0.40 0.42 0.32 0.27 0.24 0.32 0.22 0.18 0.14 0.10 0.11 0.23 0.50
0.99 0.90 0.96 0.91 0.89 0.99 1.03 1.12 1.43 1.72 2.43 3.53 4.57 6.27 8.58 6.86 4.71 2.61 1.31 1.51 1.69 2.51 2.54 1.43 1.72 3.06 2.37 1.93 2.40 2.48 2.29 2.81 1.92 1.79 1.29 1.50 1.60 1.75 1.12 0.46 0.35 0.24 0.26 0.22 0.11 0.09 0.08 0.07 0.14 0.27 0.27 0.16 0.20 0.50
0.96 0.85 0.89 0.89 0.91 0.99 1.11 1.41 1.71 2.42 3.25 3.91 5.42 6.26 7.99 4.67 2.50 2.93 4.97 4.90 4.02 2.65 1.97 1.36 1.11 1.86 2.36 2.41 2.27 2.78 2.33 1.89 1.70 1.09 1.03 1.50 0.96 0.47 0.32 0.24 0.19 0.16 0.18 0.21 0.24 0.17 0.13 0.13 0.15 0.21 0.36 0.35 0.47 0.53
1.30 1.26 1.25 1.31 1.40 1.58 1.81 1.83 2.13 2.57 2.91 3.63 4.15 4.96 4.50 3.32 3.37 4.05 4.30 3.24 2.21 1.49 0.79 0.85 1.10 1.73 1.85 2.17 2.24 1.98 2.54 1.97 1.56 1.17 1.17 1.26 0.90 0.82 0.31 0.17 0.12 0.13 0.17 0.26 0.28 0.51 0.35 0.30 0.24 0.36 0.43 0.50 0.56 0.58
1.28 1.45 1.54 1.47 1.50 1.68 1.71 1.71 1.63 1.86 2.04 1.79 2.31 3.14 3.89 3.71 3.04 2.72 2.22 1.41 0.86 0.67 0.50 0.55 0.77 1.00 1.71 1.90 2.00 1.45 1.67 1.72 2.16 1.75 1.82 1.22 1.53 0.68 0.20 0.31 0.32 0.21 0.22 0.25 0.31 0.51 0.40 0.45 0.40 0.43 0.40 0.38 0.54 0.71
1.08 1.15 1.24 1.39 1.34 1.33 1.39 1.47 1.55 1.52 1.65 1.88 1.71 2.16 2.35 2.15 1.92 1.60 1.25 0.89 0.75 0.41 0.41 0.47 0.81 1.04 1.31 1.71 1.97 1.60 1.86 1.74 1.60 1.90 1.24 1.12 0.93 0.68 0.53 0.68 0.67 0.63 0.62 0.72 0.69 0.60 0.58 0.48 0.43 0.42 0.49 0.75 0.90 1.09
0.89 0.95 0.93 1.02 1.23 1.43 1.55 1.63 1.91 2.06 2.13 1.90 1.48 1.43 1.34 1.26 0.95 0.94 1.04 1.00 0.74 0.53 0.47 0.57 1.01 1.33 1.38 1.72 2.02 1.89 1.83 1.39 1.52 1.21 1.20 1.20 0.83 0.90 0.83 0.74 0.63 0.61 0.57 0.58 0.68 0.74 0.82 0.82 0.95 1.06 1.09 1.36 1.38 1.33
0.70 0.60 0.80 1.20 1.31 1.34 1.34 1.44 1.82 1.66 1.73 1.40 0.91 0.87 0.90 1.06 0.85 0.85 0.82 0.69 0.72 0.86 0.93 1.16 1.56 1.54 1.37 1.71 1.26 1.22 1.12 0.95 0.78 1.61 1.66 1.32 0.97 0.91 0.77 0.71 0.67 0.69 0.70 0.73 0.84 0.88 1.10 1.19 1.07 1.20 1.25 1.25 1.27 1.26
0.50 0.80 0.93 0.99 0.86 0.93 1.15 1.88 2.12 1.27 1.13 0.89 0.93 1.04 0.92 1.02 1.04 0.87 0.74 0.74 0.91 1.27 1.50 1.60 1.66 1.62 1.52 1.16 0.85 0.69 0.68 0.88 1.59 1.27 1.06 1.05 0.89 0.92 0.95 0.94 0.93 0.90 0.81 0.83 0.88 0.86 0.85 0.91 0.99 1.15 1.01 0.93 1.19 1.33
0.63 0.88 0.97 0.84 0.92 1.06 1.49 2.02 1.79 1.43 0.94 0.83 1.28 1.37 1.20 1.23 1.53 1.26 1.01 0.95 0.95 1.00 1.25 1.33 1.22 1.00 1.02 0.84 0.75 0.73 1.07 1.27 1.14 1.00 0.94 0.93 0.95 1.02 1.09 1.04 1.01 0.80 0.70 0.70 0.69 0.69 0.69 0.75 0.68 0.59 0.66 0.91 0.90 1.01
0.62 0.61 0.79 0.87 1.01 1.36 1.60 1.28 1.31 0.84 0.80 1.02 1.22 1.42 0.88 1.01 1.03 1.00 0.95 0.74 0.68 0.68 0.89 1.17 1.06 0.80 0.95 1.04 1.14 1.36 1.36 1.18 1.15 1.04 0.99 1.01 0.96 0.90 0.84 0.78 0.83 0.76 0.65 0.58 0.49 0.46 0.44 0.41 0.32 0.38 0.40 0.47 0.49 0.60
0.80 0.77 1.09 1.19 0.92 1.12 1.20 0.84 0.51 0.75 1.33 0.96 0.92 0.73 0.56 0.70 0.69 0.64 0.54 0.35 0.26 0.49 0.94 1.04 0.90 1.02 1.10 1.15 1.23 1.17 1.06 0.97 0.99 0.88 0.79 0.79 0.78 0.73 0.69 0.63 0.68 0.76 0.61 0.50 0.34 0.26 0.24 0.19 0.19 0.17 0.19 0.19 0.27 0.33
1.22 1.24 1.24 1.05 0.77 0.82 0.43 0.41 0.27 0.49 0.68 0.60 0.51 0.29 0.26 0.48 0.44 0.27 0.35 0.45 0.31 0.46 0.89 1.11 1.31 1.32 1.27 1.21 0.95 0.92 0.81 0.71 0.58 0.49 0.57 0.62 0.63 0.48 0.54 0.48 0.46 0.48 0.47 0.39 0.27 0.20 0.16 0.16 0.17 0.16 0.16 0.17 0.22 0.27
1.71 1.67 1.39 0.86 0.77 0.78 0.55 0.25 0.22 0.18 0.45 0.36 0.29 0.18 0.24 0.27 0.31 0.31 0.23 0.36 0.90 0.83 0.89 0.99 1.05 1.09 0.77 0.76 0.62 0.48 0.53 0.47 0.47 0.34 0.39 0.50 0.52 0.34 0.35 0.39 0.35 0.31 0.29 0.35 0.31 0.31 0.25 0.26 0.22 0.16 0.16 0.17 0.19 0.18
1.47 1.14 1.24 0.84 0.85 0.61 0.43 0.13 0.15 0.16 0.23 0.34 0.30 0.34 0.45 0.41 0.32 0.29 0.32 0.51 0.80 0.93 0.86 0.66 0.56 0.49 0.35 0.36 0.36 0.30 0.32 0.25 0.30 0.40 0.49 0.40 0.44 0.42 0.44 0.49 0.40 0.38 0.35 0.35 0.31 0.30 0.28 0.22 0.14 0.10 0.11 0.17 0.17 0.17
0.73 0.67 0.82 0.67 0.80 0.60 0.40 0.17 0.18 0.10 0.21 0.27 0.25 0.35 0.33 0.34 0.47 0.38 0.66 0.67 0.93 0.93 0.67 0.42 0.34 0.25 0.28 0.35 0.27 0.24 0.16 0.14 0.17 0.24 0.29 0.32 0.32 0.35 0.33 0.35 0.33 0.33 0.30 0.26 0.19 0.19 0.19 0.13 0.07 0.09 0.13 0.18 0.23 0.26
0.78 0.98 0.86 0.53 0.42 0.50 0.36 0.31 0.23 0.21 0.18 0.22 0.33 0.38 0.32 0.35 0.60 0.82 0.82 0.68 0.90 0.58 0.37 0.44 0.40 0.35 0.33 0.34 0.37 0.36 0.39 0.29 0.26 0.30 0.33 0.27 0.30 0.34 0.25 0.21 0.16 0.14 0.13 0.10 0.07 0.08 0.10 0.14 0.14 0.19 0.18 0.20 0.22 0.22
1.20 1.21 1.01 0.73 0.31 0.29 0.23 0.30 0.32 0.32 0.26 0.15 0.25 0.34 0.37 0.43 0.73 0.72 0.59 1.00 0.81 0.56 0.50 0.47 0.50 0.55 0.58 0.57 0.54 0.47 0.38 0.26 0.19 0.21 0.26 0.18 0.22 0.24 0.25 0.26 0.21 0.18 0.14 0.18 0.18 0.15 0.16 0.18 0.24 0.26 0.26 0.26 0.26 0.27
0.97 0.53 0.46 0.51 0.38 0.33 0.32 0.30 0.30 0.26 0.28 0.41 0.44 0.32 0.34 0.76 0.81 0.93 1.02 1.15 0.89 0.73 0.67 0.68 0.62 0.48 0.47 0.48 0.51 0.47 0.33 0.20 0.17 0.19 0.17 0.09 0.14 0.24 0.28 0.31 0.37 0.36 0.25 0.21 0.23 0.29 0.31 0.29 0.32 0.35 0.41 0.35 0.31 0.31
0.71 0.60 0.36 0.33 0.44 0.56 0.68 0.62 0.57 0.54 0.56 0.61 0.59 0.54 0.74 0.98 0.97 1.16 1.11 0.83 0.78 0.81 0.72 0.58 0.46 0.51 0.50 0.40 0.42 0.37 0.21 0.19 0.31 0.30 0.20 0.18 0.17 0.19 0.28 0.35 0.36 0.33 0.22 0.28 0.35 0.38 0.42 0.46 0.44 0.44 0.47 0.47 0.37 0.34
0.56 0.32 0.43 0.42 0.56 0.69 0.72 0.65 0.75 0.90 0.86 0.61 0.56 0.70 0.78 0.80 1.08 1.06 0.88 0.86 0.80 0.69 0.77 0.77 0.61 0.47 0.61 0.70 0.63 0.56 0.45 0.37 0.41 0.39 0.43 0.59 0.41 0.24 0.26 0.31 0.28 0.25 0.24 0.32 0.40 0.49 0.59 0.61 0.56 0.53 0.55 0.52 0.50 0.50
0.37 0.21 0.23 0.29 0.29 0.57 0.63 0.62 0.77 0.69 0.56 0.60 0.78 0.87 0.66 0.63 1.00 0.90 0.85 0.69 0.60 0.57 0.74 0.84 0.93 0.74 0.63 0.92 1.00 0.89 0.87 0.92 0.78 0.75 0.58 0.59 0.56 0.48 0.34 0.33 0.38 0.38 0.35 0.37 0.48 0.51 0.58 0.63 0.59 0.60 0.60 0.62 0.61 0.64
0.16 0.11 0.22 0.11 0.16 0.57 0.73 0.51 0.56 0.52 0.39 0.51 0.55 0.51 0.46 0.90 1.25 0.82 0.61 0.51 0.48 0.57 0.68 0.69 0.74 0.69 0.79 0.81 1.09 1.08 1.10 1.26 1.33 1.05 0.82 0.62 0.51 0.40 0.34 0.33 0.31 0.33 0.34 0.34 0.37 0.52 0.65 0.70 0.80 0.86 0.80 0.86 0.91 0.93
0.19 0.25 0.23 0.16 0.32 0.47 0.40 0.31 0.36 0.42 0.55 0.72 0.59 0.48 0.57 0.84 0.81 0.62 0.50 0.57 0.46 0.35 0.35 0.44 0.49 0.55 0.69 0.82 0.91 0.91 1.14 1.31 1.51 1.38 1.28 1.04 0.80 0.63 0.50 0.41 0.37 0.41 0.49 0.51 0.46 0.46 0.53 0.61 0.65 0.67 0.66 0.67 0.65 0.61
0.32 0.38 0.31 0.28 0.44 0.41 0.33 0.34 0.50 0.65 0.77 0.84 0.96 0.88 0.84 0.53 0.47 0.53 0.53 0.43 0.37 0.32 0.37 0.41 0.53 0.70 0.72 0.91 0.96 1.00 1.05 1.13 1.20 1.27 1.49 1.29 1.04 0.86 0.66 0.57 0.53 0.59 0.65 0.61 0.54 0.53 0.53 0.52 0.61 0.63 0.64 0.66 0.66 0.69
0.32 0.22 0.22 0.26 0.27 0.30 0.34 0.37 0.52 0.54 0.63 0.71 0.87 0.83 0.74 0.47 0.58 0.72 0.54 0.42 0.63 0.55 0.46 0.46 0.52 0.67 0.70 0.63 0.61 0.64 0.63 0.72 0.81 0.88 1.03 1.10 1.07 0.97 0.85 0.75 0.67 0.62 0.61 0.61 0.60 0.57 0.56 0.54 0.59 0.61 0.62 0.58 0.55 0.53

GFSWCAN_prec_precacc_249.txt.gz
Total_Precipitation_Accumulation
2.62 2.59 2.43 2.21 1.88 1.69 1.87 1.90 1.57 1.59 1.68 1.74 2.04 2.30 2.41 2.60 3.51 4.35 5.27 2.67 4.35 5.07 1.96 0.91 0.87 0.75 0.57 0.72 1.33 1.20 1.89 1.82 2.25 2.35 2.10 2.01 1.78 1.29 1.00 0.65 0.59 1.08 2.04 2.23 2.16 2.54 1.13 0.33 0.48 1.02 1.37 1.24 1.18 1.27
3.01 2.64 2.27 1.94 1.67 1.71 1.85 1.97 1.64 1.57 1.52 1.63 1.75 1.95 2.27 2.49 3.21 3.94 4.85 3.02 3.57 5.61 3.51 1.01 1.03 0.68 0.45 0.52 0.95 1.34 1.56 1.45 1.73 2.17 1.78 1.69 1.51 1.33 1.19 1.26 0.64 0.84 1.09 1.57 1.71 1.41 0.74 0.40 0.52 0.98 1.01 1.07 1.06 1.10
3.10 2.84 2.59 2.04 1.79 1.80 1.89 1.87 1.60 1.49 1.35 1.42 1.70 1.77 2.13 2.68 3.15 3.99 3.91 3.35 5.44 7.06 3.74 1.52 1.06 0.68 0.64 0.51 0.71 1.81 1.15 0.78 1.14 1.18 2.07 1.75 1.41 0.84 1.02 0.85 0.87 1.03 0.64 1.02 1.20 1.12 0.58 0.44 0.40 0.48 0.56 0.74 0.83 0.77
2.88 2.68 2.35 2.04 1.85 1.89 1.72 1.62 1.42 1.38 1.33 1.38 1.59 1.94 2.19 2.87 3.27 3.87 3.41 3.25 4.34 4.43 3.97 2.16 0.87 0.68 0.67 0.76 0.74 0.99 0.90 0.70 1.08 1.78 2.78 2.36 1.70 1.03 1.28 0.91 0.88 1.17 0.90 1.07 1.32 1.65 0.83 0.71 0.84 0.83 0.64 0.62 0.52 0.48
2.23 2.18 2.07 1.91 1.67 1.75 1.65 1.61 1.48 1.39 1.48 1.42 1.60 1.97 2.72 3.20 3.96 4.46 3.00 2.98 3.08 3.36 3.46 2.26 1.07 0.81 0.68 0.82 0.75 0.90 1.00 1.22 1.73 2.46 2.58 1.55 0.91 1.44 1.68 1.04 0.83 0.78 1.03 1.24 1.49 1.46 1.43 1.41 1.14 0.84 0.77 0.65 0.46 0.28
1.60 1.61 1.84 1.93 1.62 1.66 1.54 1.52 1.58 1.61 1.51 1.53 1.86 2.13 2.89 3.96 5.68 6.41 8.08 5.39 3.11 2.75 4.14 3.12 1.77 1.14 0.79 0.84 1.07 1.37 1.81 2.16 2.32 2.41 1.60 0.97 0.57 1.77 2.49 1.16 0.77 0.83 1.14 1.09 1.10 1.03 0.87 0.84 0.71 0.59 0.55 0.52 0.56 0.54
1.44 1.50 1.84 1.72 1.56 1.43 1.46 1.50 1.52 1.63 1.82 1.97 2.23 2.41 3.62 5.21 4.96 3.93 3.50 2.81 2.03 2.54 3.98 3.23 2.29 1.71 1.29 1.20 1.78 1.78 2.01 3.01 3.25 3.03 1.93 0.86 0.71 1.98 2.47 1.19 0.79 0.83 0.94 0.80 0.69 0.69 0.67 0.49 0.38 0.33 0.33 0.41 0.52 0.54
1.45 1.36 1.34 1.37 1.30 1.32 1.36 1.33 1.44 1.66 1.92 2.46 2.71 3.82 5.03 5.46 4.42 2.79 1.09 1.08 1.36 2.73 2.97 2.85 2.61 2.93 1.71 1.85 2.36 2.00 2.20 2.72 3.05 2.58 1.66 1.01 1.32 2.08 2.15 0.81 0.47 0.40 0.42 0.32 0.27 0.24 0.32 0.22 0.18 0.14 0.10 0.11 0.23 0.50
1.02 0.93 0.99 1.04 1.14 1.23 1.19 1.19 1.47 1.75 2.46 3.56 4.61 6.34 8.68 6.91 4.73 2.62 1.32 1.51 1.69 2.51 2.54 1.43 1.72 3.06 2.37 1.93 2.40 2.48 2.29 2.81 1.92 1.81 1.30 1.50 1.60 1.75 1.12 0.46 0.35 0.24 0.26 0.22 0.11 0.09 0.08 0.07 0.14 0.27 0.27 0.16 0.20 0.50
0.99 0.87 0.95 1.09 1.19 1.20 1.23 1.47 1.76 2.48 3.31 3.98 5.56 6.39 8.10 4.70 2.50 2.95 4.99 4.93 4.04 2.65 1.97 1.36 1.11 1.86 2.36 2.41 2.27 2.78 2.33 1.89 1.70 1.09 1.03 1.50 0.96 0.47 0.32 0.24 0.19 0.16 0.18 0.21 0.24 0.17 0.13 0.13 0.15 0.21 0.36 0.35 0.47 0.53
1.34 1.32 1.38 1.61 1.71 1.72 1.88 1.93 2.19 2.67 3.11 3.77 4.23 4.99 4.51 3.33 3.39 4.05 4.32 3.25 2.22 1.49 0.79 0.85 1.10 1.73 1.85 2.17 2.24 1.98 2.54 1.97 1.56 1.17 1.17 1.26 0.90 0.82 0.31 0.17 0.12 0.13 0.17 0.26 0.28 0.51 0.35 0.30 0.24 0.36 0.43 0.50 0.56 0.58
1.37 1.56 1.77 1.84 1.75 1.76 1.80 1.81 1.75 2.10 2.16 1.81 2.32 3.17 3.90 3.71 3.05 2.72 2.22 1.41 0.86 0.67 0.50 0.55 0.77 1.00 1.71 1.90 2.00 1.45 1.67 1.72 2.17 1.76 1.83 1.23 1.53 0.68 0.20 0.31 0.32 0.21 0.22 0.25 0.31 0.51 0.40 0.45 0.40 0.43 0.40 0.38 0.54 0.71
1.19 1.28 1.58 1.70 1.46 1.39 1.47 1.57 1.64 1.54 1.65 1.88 1.71 2.17 2.35 2.16 1.92 1.60 1.25 0.89 0.75 0.41 0.41 0.47 0.81 1.04 1.31 1.71 1.97 1.60 1.86 1.75 1.60 1.90 1.25 1.12 0.93 0.68 0.53 0.68 0.67 0.64 0.62 0.72 0.69 0.60 0.58 0.48 0.43 0.42 0.49 0.75 0.90 1.09
1.02 1.19 1.29 1.17 1.29 1.49 1.64 1.71 1.92 2.06 2.13 1.90 1.49 1.43 1.34 1.26 0.95 0.94 1.04 1.00 0.74 0.53 0.47 0.57 1.01 1.33 1.38 1.72 2.02 1.89 1.83 1.39 1.52 1.21 1.20 1.21 0.85 0.90 0.83 0.74 0.63 0.61 0.57 0.58 0.68 0.74 0.82 0.82 0.95 1.06 1.09 1.36 1.38 1.33
0.90 0.91 0.99 1.26 1.37 1.43 1.39 1.46 1.82 1.66 1.73 1.40 0.91 0.87 0.90 1.06 0.85 0.85 0.82 0.69 0.72 0.86 0.93 1.16 1.56 1.54 1.38 1.71 1.26 1.22 1.13 0.95 0.78 1.61 1.67 1.35 1.01 0.94 0.78 0.71 0.68 0.69 0.71 0.73 0.84 0.88 1.10 1.19 1.07 1.20 1.25 1.25 1.27 1.26
0.74 0.98 1.02 1.07 0.94 0.96 1.21 1.91 2.12 1.27 1.13 0.89 0.93 1.04 0.92 1.02 1.04 0.87 0.74 0.74 0.91 1.27 1.50 1.60 1.66 1.62 1.52 1.16 0.85 0.69 0.68 0.88 1.59 1.27 1.07 1.06 0.90 0.95 0.98 0.95 0.95 0.92 0.82 0.83 0.88 0.86 0.85 0.91 0.99 1.15 1.01 0.93 1.19 1.33
0.84 1.06 1.06 0.92 1.01 1.26 1.64 2.07 1.82 1.44 0.94 0.83 1.28 1.37 1.20 1.23 1.53 1.26 1.01 0.95 0.95 1.00 1.26 1.37 1.25 1.00 1.02 0.84 0.75 0.73 1.07 1.27 1.14 1.00 0.94 0.93 0.95 1.02 1.09 1.04 1.01 0.80 0.70 0.70 0.69 0.69 0.69 0.75 0.68 0.59 0.66 0.91 0.90 1.01
0.66 0.76 0.98 1.12 1.29 1.52 1.66 1.29 1.34 0.87 0.80 1.02 1.22 1.42 0.88 1.01 1.03 1.00 0.95 0.75 0.68 0.68 0.91 1.24 1.10 0.83 0.95 1.05 1.14 1.36 1.36 1.18 1.15 1.04 0.99 1.01 0.96 0.90 0.84 0.78 0.83 0.76 0.65 0.58 0.49 0.46 0.44 0.41 0.32 0.38 0.40 0.47 0.49 0.61
0.94 0.98 1.29 1.29 0.94 1.15 1.31 0.94 0.51 0.75 1.33 0.96 0.92 0.73 0.56 0.70 0.69 0.64 0.54 0.35 0.26 0.49 0.95 1.07 0.94 1.05 1.10 1.15 1.23 1.17 1.06 0.97 0.99 0.88 0.79 0.79 0.78 0.73 0.69 0.63 0.68 0.76 0.61 0.50 0.34 0.26 0.24 0.19 0.19 0.17 0.19 0.19 0.27 0.33
1.38 1.36 1.29 1.06 0.77 0.82 0.45 0.44 0.27 0.49 0.68 0.60 0.51 0.29 0.26 0.48 0.44 0.27 0.35 0.45 0.31 0.46 0.89 1.11 1.33 1.32 1.27 1.21 0.95 0.92 0.81 0.71 0.58 0.49 0.57 0.62 0.63 0.48 0.54 0.48 0.46 0.48 0.47 0.39 0.27 0.20 0.16 0.16 0.17 0.16 0.16 0.17 0.22 0.27
2.04 1.82 1.42 0.87 0.78 0.78 0.56 0.27 0.23 0.18 0.45 0.36 0.29 0.18 0.25 0.28 0.31 0.31 0.23 0.36 0.90 0.83 0.89 0.99 1.05 1.09 0.77 0.76 0.62 0.48 0.53 0.47 0.47 0.34 0.39 0.50 0.52 0.34 0.35 0.39 0.35 0.31 0.29 0.35 0.31 0.31 0.25 0.26 0.22 0.16 0.16 0.17 0.19 0.18
1.61 1.15 1.24 0.85 0.85 0.61 0.43 0.13 0.15 0.16 0.23 0.34 0.30 0.34 0.45 0.41 0.32 0.29 0.32 0.51 0.80 0.93 0.86 0.66 0.56 0.49 0.35 0.36 0.36 0.30 0.32 0.25 0.30 0.40 0.49 0.40 0.44 0.42 0.44 0.49 0.40 0.38 0.35 0.35 0.31 0.30 0.28 0.22 0.14 0.10 0.11 0.17 0.17 0.18
0.76 0.68 0.83 0.68 0.80 0.61 0.43 0.17 0.18 0.10 0.23 0.29 0.25 0.35 0.33 0.34 0.47 0.38 0.66 0.67 0.93 0.93 0.67 0.42 0.34 0.25 0.28 0.35 0.27 0.24 0.16 0.14 0.17 0.24 0.29 0.32 0.32 0.35 0.33 0.35 0.33 0.33 0.30 0.26 0.19 0.19 0.19 0.13 0.07 0.09 0.13 0.18 0.23 0.26
0.78 0.99 0.87 0.54 0.42 0.52 0.37 0.31 0.23 0.21 0.18 0.22 0.33 0.38 0.32 0.35 0.60 0.82 0.82 0.68 0.90 0.58 0.37 0.44 0.40 0.35 0.33 0.34 0.37 0.36 0.39 0.29 0.26 0.30 0.33 0.27 0.30 0.34 0.25 0.21 0.16 0.14 0.13 0.10 0.07 0.08 0.10 0.14 0.14 0.19 0.18 0.20 0.22 0.22
1.21 1.23 1.01 0.73 0.31 0.29 0.23 0.30 0.32 0.32 0.26 0.15 0.25 0.34 0.37 0.43 0.73 0.72 0.59 1.00 0.81 0.56 0.50 0.47 0.50 0.55 0.58 0.57 0.54 0.47 0.38 0.26 0.19 0.21 0.26 0.18 0.22 0.24 0.25 0.26 0.21 0.18 0.14 0.18 0.18 0.15 0.16 0.18 0.24 0.26 0.26 0.26 0.26 0.27
0.98 0.53 0.46 0.51 0.38 0.33 0.32 0.30 0.30 0.26 0.28 0.41 0.44 0.32 0.34 0.76 0.81 0.93 1.03 1.15 0.89 0.73 0.67 0.68 0.62 0.48 0.47 0.48 0.51 0.47 0.33 0.20 0.17 0.19 0.17 0.09 0.14 0.24 0.28 0.31 0.37 0.36 0.25 0.21 0.23 0.29 0.31 0.29 0.32 0.35 0.41 0.35 0.31 0.31
0.71 0.60 0.36 0.33 0.44 0.56 0.68 0.62 0.57 0.54 0.56 0.61 0.59 0.54 0.74 0.98 0.97 1.17 1.12 0.84 0.79 0.81 0.72 0.58 0.46 0.51 0.50 0.40 0.42 0.37 0.21 0.19 0.31 0.30 0.20 0.18 0.17 0.19 0.28 0.35 0.36 0.33 0.22 0.28 0.35 0.38 0.42 0.46 0.44 0.44 0.48 0.47 0.37 0.34
0.56 0.32 0.43 0.42 0.56 0.69 0.72 0.65 0.75 0.90 0.86 0.61 0.56 0.70 0.78 0.80 1.08 1.07 0.88 0.86 0.80 0.69 0.77 0.77 0.61 0.47 0.61 0.70 0.63 0.56 0.45 0.37 0.41 0.39 0.43 0.59 0.41 0.24 0.26 0.31 0.28 0.25 0.24 0.32 0.40 0.49 0.59 0.61 0.56 0.54 0.55 0.53 0.50 0.50
0.37 0.21 0.23 0.29 0.29 0.57 0.63 0.62 0.77 0.69 0.56 0.60 0.78 0.87 0.66 0.63 1.00 0.90 0.85 0.69 0.60 0.57 0.74 0.84 0.93 0.74 0.63 0.92 1.00 0.89 0.87 0.92 0.78 0.75 0.58 0.59 0.56 0.48 0.34 0.33 0.38 0.38 0.35 0.37 0.48 0.51 0.58 0.63 0.59 0.61 0.61 0.63 0.61 0.64
0.16 0.11 0.22 0.11 0.16 0.57 0.73 0.51 0.56 0.52 0.39 0.51 0.55 0.51 0.47 0.90 1.25 0.82 0.61 0.51 0.48 0.57 0.68 0.69 0.74 0.69 0.79 0.81 1.09 1.08 1.10 1.26 1.33 1.05 0.82 0.62 0.51 0.40 0.34 0.33 0.31 0.33 0.34 0.34 0.37 0.52 0.65 0.70 0.81 0.87 0.81 0.87 0.92 0.94
0.19 0.25 0.23 0.16 0.32 0.47 0.40 0.31 0.36 0.42 0.55 0.72 0.59 0.48 0.58 0.85 0.81 0.62 0.51 0.57 0.46 0.35 0.35 0.44 0.49 0.55 0.69 0.82 0.91 0.91 1.14 1.31 1.51 1.38 1.28 1.04 0.80 0.63 0.50 0.41 0.37 0.41 0.50 0.52 0.47 0.47 0.54 0.62 0.65 0.67 0.67 0.67 0.65 0.62
0.32 0.38 0.31 0.28 0.45 0.42 0.33 0.34 0.50 0.65 0.77 0.84 0.96 0.88 0.84 0.53 0.47 0.53 0.53 0.43 0.37 0.32 0.37 0.41 0.53 0.70 0.72 0.91 0.96 1.00 1.05 1.13 1.20 1.27 1.49 1.29 1.04 0.86 0.66 0.57 0.54 0.60 0.68 0.64 0.56 0.55 0.55 0.53 0.61 0.63 0.64 0.67 0.68 0.72
0.32 0.22 0.22 0.26 0.27 0.30 0.34 0.37 0.52 0.54 0.63 0.71 0.87 0.83 0.75 0.48 0.58 0.73 0.54 0.42 0.63 0.55 0.46 0.46 0.52 0.67 0.70 0.63 0.61 0.64 0.63 0.72 0.81 0.88 1.03 1.10 1.07 0.97 0.85 0.75 0.68 0.64 0.64 0.65 0.63 0.60 0.57 0.55 0.59 0.61 0.62 0.60 0.59 0.58

GFSWCAN_prec_precacc_255.txt.gz
Total_Precipitation_Accumulation
2.66 2.63 2.47 2.26 1.93 1.75 1.97 2.07 1.79 1.86 1.95 2.00 2.31 2.51 2.46 2.62 3.57 4.40 5.28 2.67 4.35 5.07 1.96 0.91 0.87 0.75 0.57 0.72 1.33 1.20 1.89 1.82 2.25 2.35 2.10 2.01 1.78 1.29 1.00 0.65 0.59 1.08 2.04 2.23 2.16 2.54 1.13 0.33 0.48 1.02 1.37 1.24 1.18 1.27
3.03 2.67 2.31 1.98 1.71 1.76 1.93 2.14 1.85 1.81 1.78 1.88 1.99 2.19 2.39 2.53 3.27 3.99 4.86 3.02 3.57 5.61 3.51 1.01 1.03 0.68 0.45 0.52 0.95 1.34 1.56 1.45 1.73 2.17 1.78 1.69 1.51 1.33 1.19 1.26 0.64 0.84 1.09 1.57 1.71 1.41 0.74 0.40 0.52 0.98 1.01 1.07 1.06 1.10
3.12 2.86 2.61 2.06 1.82 1.86 1.97 2.04 1.84 1.72 1.60 1.68 1.95 2.02 2.27 2.72 3.22 4.05 3.93 3.35 5.44 7.06 3.74 1.52 1.06 0.68 0.64 0.51 0.71 1.81 1.15 0.78 1.14 1.18 2.07 1.75 1.41 0.84 1.02 0.85 0.87 1.03 0.64 1.02 1.20 1.12 0.58 0.44 0.40 0.48 0.56 0.74 0.83 0.77
2.90 2.70 2.37 2.06 1.87 1.93 1.79 1.78 1.69 1.62 1.59 1.66 1.86 2.15 2.33 2.93 3.35 3.96 3.45 3.25 4.34 4.44 3.97 2.16 0.87 0.68 0.67 0.76 0.74 0.99 0.90 0.70 1.08 1.78 2.78 2.36 1.70 1.03 1.28 0.91 0.88 1.17 0.90 1.07 1.32 1.65 0.83 0.71 0.84 0.83 0.64 0.62 0.52 0.48
2.27 2.21 2.09 1.94 1.70 1.79 1.72 1.77 1.74 1.64 1.73 1.70 1.88 2.24 2.86 3.27 4.08 4.59 3.04 2.98 3.08 3.36 3.46 2.26 1.07 0.81 0.68 0.82 0.75 0.90 1.00 1.22 1.73 2.46 2.58 1.55 0.91 1.44 1.68 1.04 0.83 0.78 1.03 1.24 1.49 1.46 1.43 1.41 1.14 0.84 0.77 0.65 0.46 0.28
1.69 1.69 1.89 1.96 1.65 1.69 1.61 1.71 1.85 1.87 1.74 1.82 2.16 2.37 3.01 4.06 5.90 6.62 8.24 5.43 3.11 2.75 4.14 3.12 1.77 1.14 0.79 0.84 1.07 1.37 1.81 2.16 2.32 2.41 1.60 0.97 0.57 1.77 2.49 1.16 0.77 0.83 1.14 1.09 1.10 1.03 0.87 0.84 0.71 0.59 0.55 0.52 0.56 0.54
1.53 1.56 1.91 1.79 1.61 1.46 1.53 1.71 1.81 1.92 2.06 2.22 2.51 2.65 3.73 5.35 5.18 4.06 3.56 2.83 2.03 2.54 3.98 3.23 2.29 1.71 1.29 1.20 1.78 1.78 2.01 3.01 3.25 3.03 1.93 0.86 0.71 1.98 2.47 1.19 0.79 0.83 0.94 0.80 0.69 0.69 0.67 0.49 0.38 0.33 0.33 0.41 0.52 0.54
1.54 1.45 1.41 1.41 1.35 1.37 1.48 1.59 1.71 1.96 2.21 2.74 2.97 4.00 5.17 5.69 4.67 2.88 1.09 1.08 1.36 2.73 2.97 2.85 2.61 2.93 1.71 1.85 2.36 2.00 2.20 2.72 3.06 2.58 1.67 1.01 1.32 2.08 2.15 0.81 0.47 0.40 0.42 0.32 0.27 0.24 0.32 0.22 0.18 0.14 0.10 0.11 0.23 0.50
1.05 0.96 1.02 1.09 1.18 1.30 1.38 1.49 1.78 2.05 2.79 3.95 4.91 6.60 9.03 7.25 5.07 2.72 1.32 1.51 1.69 2.51 2.54 1.43 1.72 3.07 2.37 1.93 2.40 2.48 2.29 2.83 1.94 1.83 1.30 1.50 1.61 1.75 1.12 0.46 0.35 0.24 0.26 0.22 0.11 0.09 0.08 0.07 0.14 0.27 0.27 0.16 0.20 0.50
1.02 0.90 0.97 1.12 1.24 1.33 1.52 1.79 2.14 2.84 3.73 4.62 6.24 6.89 8.66 5.14 2.61 2.99 5.03 4.98 4.07 2.65 1.97 1.36 1.11 1.86 2.37 2.41 2.27 2.79 2.33 1.89 1.70 1.09 1.04 1.52 0.96 0.47 0.32 0.24 0.19 0.16 0.18 0.21 0.24 0.17 0.13 0.13 0.15 0.21 0.36 0.35 0.47 0.53
1.37 1.35 1.41 1.64 1.80 1.92 2.24 2.29 2.69 3.28 3.96 4.62 4.80 5.33 4.86 3.55 3.48 4.14 4.48 3.35 2.28 1.51 0.79 0.85 1.10 1.73 1.85 2.17 2.25 1.98 2.54 1.97 1.56 1.17 1.17 1.26 0.90 0.82 0.31 0.17 0.12 0.13 0.17 0.26 0.28 0.51 0.35 0.30 0.24 0.36 0.43 0.50 0.56 0.58
1.41 1.63 1.82 1.91 1.97 2.05 2.19 2.33 2.56 3.25 2.83 2.04 2.48 3.51 4.19 3.90 3.19 2.83 2.28 1.43 0.87 0.67 0.50 0.55 0.77 1.00 1.71 1.90 2.00 1.45 1.67 1.73 2.17 1.76 1.84 1.23 1.53 0.68 0.20 0.31 0.32 0.21 0.22 0.25 0.31 0.51 0.40 0.45 0.40 0.43 0.40 0.38 0.54 0.71
1.25 1.37 1.65 1.89 1.81 1.75 2.02 2.45 2.42 1.91 1.68 1.88 1.74 2.28 2.46 2.31 1.99 1.64 1.28 0.90 0.75 0.41 0.41 0.47 0.81 1.04 1.31 1.71 1.97 1.60 1.87 1.75 1.61 1.93 1.26 1.12 0.93 0.68 0.53 0.68 0.67 0.64 0.62 0.72 0.69 0.60 0.58 0.48 0.43 0.42 0.49 0.75 0.90 1.09
1.07 1.28 1.46 1.54 1.70 2.03 2.54 2.42 2.08 2.07 2.14 1.93 1.52 1.48 1.36 1.27 0.95 0.94 1.04 1.00 0.74 0.53 0.47 0.57 1.01 1.33 1.38 1.72 2.02 1.89 1.83 1.40 1.54 1.23 1.20 1.21 0.85 0.90 0.83 0.74 0.63 0.61 0.57 0.58 0.68 0.74 0.82 0.82 0.95 1.06 1.09 1.36 1.38 1.33
0.96 1.11 1.36 1.72 2.00 1.96 1.89 1.59 1.83 1.66 1.73 1.40 0.91 0.87 0.90 1.06 0.85 0.85 0.82 0.69 0.72 0.86 0.93 1.16 1.56 1.54 1.38 1.71 1.26 1.22 1.13 0.95 0.78 1.61 1.67 1.35 1.01 0.94 0.78 0.71 0.68 0.70 0.72 0.74 0.84 0.88 1.10 1.19 1.07 1.20 1.25 1.25 1.27 1.26
0.93 1.46 1.59 1.56 1.26 1.10 1.36 1.94 2.13 1.27 1.13 0.89 0.93 1.04 0.92 1.02 1.04 0.87 0.74 0.74 0.91 1.27 1.50 1.60 1.66 1.62 1.52 1.16 0.85 0.69 0.68 0.88 1.59 1.27 1.07 1.06 0.92 0.97 0.99 0.96 0.96 0.94 0.83 0.83 0.88 0.86 0.85 0.91 0.99 1.15 1.01 0.93 1.19 1.33
1.41 1.77 1.42 1.16 1.17 1.49 1.76 2.12 1.83 1.44 0.94 0.83 1.28 1.37 1.20 1.23 1.53 1.26 1.01 0.95 0.95 1.00 1.26 1.37 1.25 1.00 1.02 0.84 0.75 0.73 1.07 1.27 1.14 1.00 0.94 0.94 0.96 1.03 1.10 1.05 1.01 0.80 0.70 0.70 0.69 0.69 0.69 0.75 0.68 0.59 0.66 0.91 0.90 1.01
1.13 1.12 1.37 1.49 1.59 1.67 1.70 1.30 1.37 0.90 0.81 1.02 1.22 1.42 0.88 1.01 1.03 1.00 0.95 0.75 0.68 0.68 0.91 1.24 1.11 0.83 0.95 1.05 1.14 1.36 1.36 1.18 1.15 1.04 0.99 1.02 0.98 0.91 0.85 0.78 0.83 0.76 0.65 0.58 0.49 0.46 0.44 0.41 0.32 0.38 0.40 0.47 0.49 0.61
1.31 1.25 1.44 1.36 0.96 1.20 1.54 1.18 0.54 0.76 1.35 0.96 0.92 0.73 0.56 0.70 0.69 0.65 0.55 0.35 0.27 0.51 0.96 1.09 0.97 1.07 1.11 1.15 1.23 1.17 1.06 0.97 1.00 0.89 0.81 0.81 0.79 0.74 0.69 0.63 0.68 0.76 0.61 0.50 0.34 0.26 0.24 0.19 0.19 0.17 0.19 0.19 0.27 0.33
1.48 1.40 1.31 1.07 0.78 0.82 0.51 0.55 0.27 0.50 0.71 0.61 0.51 0.30 0.26 0.52 0.47 0.32 0.41 0.49 0.36 0.53 0.96 1.15 1.35 1.32 1.27 1.21 0.95 0.92 0.81 0.71 0.58 0.50 0.59 0.62 0.63 0.48 0.54 0.48 0.46 0.48 0.47 0.39 0.27 0.20 0.16 0.16 0.17 0.16 0.16 0.17 0.22 0.27
2.41 2.07 1.55 0.93 0.80 0.78 0.58 0.29 0.24 0.20 0.47 0.40 0.30 0.19 0.33 0.41 0.47 0.48 0.43 0.48 1.00 0.90 0.92 1.00 1.05 1.09 0.77 0.76 0.62 0.48 0.53 0.47 0.47 0.34 0.39 0.50 0.52 0.34 0.35 0.39 0.35 0.31 0.29 0.35 0.31 0.31 0.25 0.26 0.22 0.16 0.16 0.17 0.19 0.18
1.85 1.20 1.25 0.85 0.85 0.61 0.44 0.13 0.16 0.16 0.24 0.37 0.30 0.35 0.50 0.48 0.41 0.40 0.44 0.59 0.86 0.94 0.86 0.66 0.56 0.49 0.35 0.36 0.36 0.30 0.33 0.26 0.30 0.40 0.49 0.40 0.44 0.42 0.44 0.49 0.40 0.38 0.35 0.35 0.31 0.30 0.28 0.22 0.14 0.10 0.11 0.17 0.17 0.18
0.78 0.69 0.85 0.71 0.83 0.65 0.47 0.17 0.18 0.10 0.26 0.32 0.26 0.35 0.34 0.35 0.47 0.39 0.67 0.68 0.94 0.94 0.67 0.42 0.34 0.25 0.28 0.35 0.27 0.24 0.16 0.14 0.17 0.24 0.29 0.32 0.32 0.35 0.33 0.35 0.33 0.33 0.30 0.26 0.19 0.19 0.19 0.13 0.07 0.09 0.13 0.18 0.23 0.26
0.78 1.08 0.98 0.58 0.43 0.55 0.40 0.31 0.23 0.21 0.20 0.23 0.34 0.38 0.32 0.35 0.60 0.82 0.82 0.68 0.90 0.58 0.37 0.44 0.40 0.35 0.33 0.34 0.37 0.36 0.39 0.29 0.26 0.30 0.33 0.27 0.30 0.34 0.25 0.21 0.16 0.14 0.13 0.10 0.07 0.08 0.10 0.14 0.14 0.19 0.18 0.20 0.22 0.22
1.25 1.30 1.02 0.73 0.31 0.29 0.23 0.30 0.32 0.32 0.27 0.16 0.25 0.34 0.37 0.43 0.73 0.72 0.59 1.00 0.81 0.56 0.50 0.47 0.50 0.55 0.58 0.57 0.54 0.47 0.38 0.26 0.19 0.21 0.26 0.18 0.22 0.24 0.25 0.26 0.21 0.18 0.14 0.18 0.18 0.15 0.16 0.18 0.24 0.26 0.26 0.26 0.26 0.27
0.99 0.54 0.46 0.51 0.38 0.33 0.32 0.30 0.30 0.26 0.28 0.41 0.44 0.32 0.34 0.76 0.81 0.93 1.03 1.16 0.89 0.73 0.67 0.68 0.62 0.49 0.47 0.49 0.51 0.47 0.33 0.20 0.17 0.19 0.17 0.09 0.14 0.24 0.28 0.31 0.37 0.36 0.25 0.21 0.23 0.29 0.31 0.29 0.32 0.35 0.41 0.35 0.31 0.31
0.71 0.60 0.36 0.33 0.44 0.56 0.68 0.62 0.57 0.54 0.56 0.61 0.59 0.54 0.74 0.98 0.97 1.17 1.13 0.85 0.79 0.81 0.72 0.58 0.46 0.52 0.50 0.40 0.42 0.37 0.21 0.19 0.31 0.30 0.20 0.18 0.17 0.19 0.28 0.35 0.36 0.33 0.22 0.28 0.35 0.38 0.42 0.46 0.44 0.44 0.48 0.47 0.37 0.34
0.56 0.32 0.43 0.42 0.56 0.69 0.72 0.65 0.75 0.90 0.86 0.61 0.56 0.70 0.78 0.80 1.09 1.08 0.90 0.88 0.81 0.70 0.77 0.77 0.61 0.47 0.61 0.70 0.63 0.56 0.45 0.37 0.41 0.39 0.43 0.59 0.41 0.24 0.26 0.31 0.28 0.25 0.24 0.32 0.40 0.49 0.59 0.61 0.56 0.54 0.55 0.53 0.50 0.50
0.37 0.21 0.23 0.29 0.29 0.57 0.63 0.62 0.77 0.69 0.56 0.60 0.78 0.88 0.66 0.65 1.02 0.92 0.88 0.71 0.61 0.57 0.74 0.84 0.93 0.74 0.63 0.92 1.00 0.89 0.87 0.92 0.78 0.75 0.58 0.59 0.56 0.48 0.34 0.33 0.38 0.38 0.35 0.37 0.48 0.51 0.58 0.63 0.60 0.62 0.62 0.64 0.62 0.64
0.16 0.11 0.22 0.11 0.16 0.58 0.73 0.51 0.56 0.52 0.39 0.51 0.55 0.51 0.47 0.94 1.30 0.85 0.62 0.51 0.48 0.57 0.68 0.69 0.74 0.69 0.79 0.81 1.09 1.08 1.10 1.26 1.33 1.05 0.82 0.62 0.51 0.40 0.34 0.33 0.31 0.33 0.34 0.35 0.37 0.53 0.65 0.70 0.81 0.87 0.82 0.88 0.92 0.94
0.19 0.25 0.23 0.16 0.33 0.49 0.41 0.31 0.36 0.42 0.55 0.72 0.59 0.48 0.58 0.88 0.85 0.65 0.51 0.57 0.46 0.35 0.35 0.44 0.49 0.55 0.69 0.82 0.91 0.91 1.14 1.31 1.51 1.38 1.29 1.04 0.80 0.63 0.50 0.41 0.37 0.41 0.50 0.53 0.48 0.49 0.55 0.63 0.67 0.69 0.68 0.68 0.66 0.63
0.32 0.38 0.31 0.29 0.47 0.42 0.33 0.34 0.50 0.65 0.77 0.84 0.96 0.89 0.84 0.53 0.48 0.55 0.56 0.44 0.37 0.32 0.37 0.41 0.53 0.70 0.72 0.91 0.96 1.00 1.05 1.13 1.20 1.27 1.49 1.29 1.04 0.86 0.66 0.57 0.54 0.60 0.69 0.65 0.58 0.57 0.57 0.56 0.64 0.65 0.66 0.68 0.69 0.73
0.32 0.22 0.22 0.26 0.28 0.30 0.34 0.37 0.52 0.54 0.63 0.71 0.87 0.83 0.75 0.48 0.59 0.74 0.56 0.42 0.63 0.55 0.46 0.46 0.52 0.67 0.70 0.63 0.61 0.64 0.63 0.72 0.81 0.88 1.03 1.10 1.07 0.97 0.85 0.75 0.68 0.64 0.65 0.66 0.64 0.62 0.60 0.57 0.62 0.62 0.64 0.62 0.60 0.58